Weather History for Bentonville, AR

Change the Weather History Date:

Tuesday, October 2, 2012

  Actual Average Record
Temperature  
Mean Temperature - -  
Max Temperature - 77 °F 94 °F (1953)
Min Temperature - 49 °F 33 °F (1958)
Moisture  
Dew Point -    
Average Humidity    
Maximum Humidity    
Minimum Humidity    
Precipitation  
Precipitation 0.00 in - - ()
Sea Level Pressure  
Sea Level Pressure 29.90 in    
Wind  
Wind Speed 4 mph (NNW)    
Max Wind Speed 12 mph    
Max Gust Speed 16 mph    
Visibility 10 miles    
Events      
Averages and records for this station are not official NWS values.
T = Trace of Precipitation, MM = Missing Value Source: NWS Daily Summary

Daily Weather History Graph

Daily Weather History Graph

Search for Another Location

Airport:

Trip Planner

Search our weather history database for the weather conditions in past years. The results will help you decide how hot, cold, wet, or windy it might be!

Date:

Astronomy

Oct. 02, 2012 Rise Set
Actual Time 7:13 AM CDT 6:58 PM CDT
Civil Twilight 6:47 AM CDT 7:23 PM CDT
Nautical Twilight 6:17 AM CDT 7:53 PM CDT
Astronomical Twilight 5:47 AM CDT 8:23 PM CDT
Moon 8:17 PM CDT (10/2) 9:35 AM CDT (10/2)
Length of Visible Light 12h 36m
Length of Day
11h 44m
Waning Gibbous, 94% of the Moon is Illuminated
Oct 2
Waning Gibbous
Oct 8
Last Quarter
Oct 15
New
Oct 21
First Quarter
Oct 29
Full

Hourly Weather History & Observations

Time (CDT) Temp. Dew Point Humidity Pressure Visibility Wind Dir Wind Speed Gust Speed Precip Events Conditions
12:15 AM - - N/A% 29.84 in 10.0 mi North 4.6 mph - N/A   Clear
12:35 AM - - N/A% 29.84 in 10.0 mi NNW 3.5 mph - N/A   Clear
12:56 AM - - N/A% 29.84 in 10.0 mi North 4.6 mph - N/A   Clear
1:15 AM - - N/A% 29.84 in 10.0 mi NNW 4.6 mph - N/A   Clear
1:35 AM - - N/A% 29.84 in 10.0 mi North 4.6 mph - N/A   Clear
1:55 AM - - N/A% 29.85 in 10.0 mi Calm Calm - N/A   Clear
2:15 AM - - N/A% 29.85 in 10.0 mi NNW 3.5 mph - N/A   Clear
2:35 AM - - N/A% 29.85 in 10.0 mi NNW 4.6 mph - N/A   Clear
2:55 AM - - N/A% 29.85 in 10.0 mi Calm Calm - N/A   Clear
3:16 AM - - N/A% 29.85 in 10.0 mi Calm Calm - N/A   Clear
3:35 AM - - N/A% 29.85 in 10.0 mi NNW 3.5 mph - N/A   Clear
3:55 AM - - N/A% 29.85 in 10.0 mi Calm Calm - N/A   Clear
4:35 AM - - N/A% 29.86 in 10.0 mi Calm Calm - N/A   Clear
4:55 AM - - N/A% 29.87 in 10.0 mi NNW 3.5 mph - N/A   Clear
5:35 AM - - N/A% 29.88 in 10.0 mi Calm Calm - N/A   Clear
5:55 AM - - N/A% 29.88 in 10.0 mi Calm Calm - N/A   Clear
6:15 AM - - N/A% 29.89 in 10.0 mi Calm Calm - N/A   Clear
6:36 AM - - N/A% 29.89 in 10.0 mi NW 3.5 mph - N/A   Clear
6:55 AM - - N/A% 29.90 in 10.0 mi NNW 3.5 mph - N/A   Clear
7:15 AM - - N/A% 29.90 in 10.0 mi NNW 3.5 mph - N/A   Clear
7:35 AM - - N/A% 29.90 in 10.0 mi Calm Calm - N/A   Clear
7:55 AM - - N/A% 29.90 in 10.0 mi Calm Calm - N/A   Clear
8:15 AM - - N/A% 29.91 in 10.0 mi Calm Calm - N/A   Clear
8:35 AM - - N/A% 29.92 in 10.0 mi Calm Calm - N/A   Clear
9:15 AM - - N/A% 29.93 in 10.0 mi NNW 4.6 mph - N/A   Clear
9:35 AM - - N/A% 29.94 in 10.0 mi North 5.8 mph - N/A   Clear
9:55 AM - - N/A% 29.94 in 10.0 mi North 8.1 mph - N/A   Clear
10:16 AM - - N/A% 29.94 in 10.0 mi NNW 4.6 mph - N/A   Clear
10:35 AM - - N/A% 29.94 in 10.0 mi North 6.9 mph - N/A   Clear
10:55 AM - - N/A% 29.94 in 10.0 mi North 4.6 mph - N/A   Clear
11:35 AM - - N/A% 29.94 in 10.0 mi NW 6.9 mph - N/A   Clear
11:55 AM - - N/A% 29.93 in 10.0 mi North 6.9 mph - N/A   Clear
12:15 PM - - N/A% 29.93 in 10.0 mi NW 9.2 mph - N/A   Clear
12:35 PM - - N/A% 29.93 in 10.0 mi NNW 8.1 mph - N/A   Clear
12:55 PM - - N/A% 29.93 in 10.0 mi NNW 10.4 mph - N/A   Clear
1:35 PM - - N/A% 29.91 in 10.0 mi NW 5.8 mph - N/A   Clear
1:55 PM - - N/A% 29.90 in 10.0 mi NW 6.9 mph - N/A   Clear
2:15 PM - - N/A% 29.90 in 10.0 mi NW 10.4 mph 16.1 mph N/A   Clear
2:55 PM - - N/A% 29.89 in 10.0 mi NNW 11.5 mph - N/A   Clear
3:35 PM - - N/A% 29.89 in 10.0 mi North 10.4 mph - N/A   Clear
3:55 PM - - N/A% 29.89 in 10.0 mi NNW 8.1 mph - N/A   Clear
4:15 PM - - N/A% 29.89 in 10.0 mi NNW 6.9 mph - N/A   Clear
4:35 PM - - N/A% 29.89 in 10.0 mi NW 6.9 mph - N/A   Clear
4:55 PM - - N/A% 29.89 in 10.0 mi NNW 10.4 mph - N/A   Clear
5:15 PM - - N/A% 29.89 in 10.0 mi NNW 8.1 mph - N/A   Clear
5:35 PM - - N/A% 29.89 in 10.0 mi WNW 6.9 mph - N/A   Clear
5:55 PM - - N/A% 29.89 in 10.0 mi NW 4.6 mph - N/A   Clear
6:15 PM - - N/A% 29.89 in 10.0 mi WNW 5.8 mph - N/A   Clear
7:15 PM - - N/A% 29.90 in 10.0 mi West 3.5 mph - N/A   Clear
7:35 PM - - N/A% 29.90 in 10.0 mi West 3.5 mph - N/A   Clear
7:55 PM - - N/A% 29.90 in 10.0 mi West 3.5 mph - N/A   Clear
8:35 PM - - N/A% 29.91 in 10.0 mi Calm Calm - N/A   Clear
8:55 PM - - N/A% 29.92 in 10.0 mi Calm Calm - N/A   Clear
9:15 PM - - N/A% 29.92 in 10.0 mi Calm Calm - N/A   Clear
9:36 PM - - N/A% 29.93 in 10.0 mi Calm Calm - N/A   Clear
9:55 PM - - N/A% 29.93 in 10.0 mi Calm Calm - N/A   Clear
10:15 PM - - N/A% 29.93 in 10.0 mi Calm Calm - N/A   Clear
10:36 PM - - N/A% 29.94 in 10.0 mi Calm Calm - N/A   Clear
10:55 PM - - N/A% 29.94 in 10.0 mi Calm Calm - N/A   Clear
11:36 PM - - N/A% 29.94 in 10.0 mi Calm Calm - N/A   Clear
11:55 PM - - N/A% 29.94 in 10.0 mi Calm Calm - N/A   Clear